Weather History for Corpus Christi, TX

Change the Weather History Date:

Monday, July 22, 2013

  Actual Average Record
Temperature  
Mean Temperature 88 °F 84 °F  
Max Temperature 94 °F 94 °F 100 °F (1980)
Min Temperature 81 °F 75 °F 71 °F (2008)
Degree Days  
Heating Degree Days 0 0  
Month to date heating degree days 0 0  
Since 1 June heating degree days 0 0  
Since 1 July heating degree days 0 0  
Cooling Degree Days 23 19  
Month to date cooling degree days 453 414  
Year to date cooling degree days 2129 1777  
Since 1 June cooling degree days 1111 936  
Growing Degree Days 37 (Base 50)    
Moisture  
Dew Point 76 °F    
Average Humidity 74    
Maximum Humidity 91    
Minimum Humidity 56    
Precipitation  
Precipitation 0.00 in 0.07 in 1.30 in (1980)
Month to date precipitation 2.73 2.24  
Year to date precipitation 9.80 15.87  
Snow  
Snow 0.00 in - - ()
Month to date snowfall 0.0  
Since 1 June snowfall 0.0  
Since 1 July snowfall 0.0  
Snow Depth 0.00 in    
Sea Level Pressure  
Sea Level Pressure 29.95 in    
Wind  
Wind Speed 16 mph (SSE)    
Max Wind Speed 29 mph    
Max Gust Speed 37 mph    
Visibility 10 miles    
Events      
T = Trace of Precipitation, MM = Missing Value Source: NWS Daily Summary

Daily Weather History Graph

Daily Weather History Graph

Search for Another Location

Airport:

Trip Planner

Search our weather history database for the weather conditions in past years. The results will help you decide how hot, cold, wet, or windy it might be!

Date:

Astronomy

Jul. 22, 2013 Rise Set
Actual Time 6:47 AM CDT 8:24 PM CDT
Civil Twilight 6:21 AM CDT 8:50 PM CDT
Nautical Twilight 5:51 AM CDT 9:21 PM CDT
Astronomical Twilight 5:18 AM CDT 9:53 PM CDT
Moon 8:20 PM CDT (7/22) 6:40 AM CDT (7/22)
Length of Visible Light 14h 28m
Length of Day
13h 37m
Full, 100% of the Moon is Illuminated
Jul 22
Full
Jul 22
Full
Jul 29
Last Quarter
Aug 6
New
Aug 14
First Quarter

Hourly Weather History & Observations

Time (CDT) Temp. Heat Index Dew Point Humidity Pressure Visibility Wind Dir Wind Speed Gust Speed Precip Events Conditions
12:51 AM 82.9 °F 91.8 °F 77.0 °F 82% 29.96 in 10.0 mi South 12.7 mph - N/A   Partly Cloudy
1:51 AM 82.9 °F 91.8 °F 77.0 °F 82% 29.94 in 10.0 mi SSE 12.7 mph - N/A   Partly Cloudy
2:51 AM 82.9 °F 91.8 °F 77.0 °F 82% 29.93 in 10.0 mi SSE 12.7 mph - N/A   Partly Cloudy
3:51 AM 82.9 °F 91.8 °F 77.0 °F 82% 29.93 in 10.0 mi South 12.7 mph - N/A   Partly Cloudy
4:51 AM 82.9 °F 91.8 °F 77.0 °F 82% 29.93 in 10.0 mi SSE 11.5 mph - N/A   Partly Cloudy
5:51 AM 82.0 °F 90.2 °F 77.0 °F 85% 29.93 in 10.0 mi SSE 9.2 mph - N/A   Partly Cloudy
6:51 AM 81.0 °F 87.9 °F 77.0 °F 88% 29.95 in 8.0 mi SSE 4.6 mph - N/A   Partly Cloudy
7:51 AM 82.9 °F 91.8 °F 77.0 °F 82% 29.96 in 10.0 mi SE 8.1 mph - N/A   Partly Cloudy
8:51 AM 86.0 °F 96.9 °F 77.0 °F 74% 29.97 in 10.0 mi SSE 15.0 mph 19.6 mph N/A   Partly Cloudy
9:51 AM 89.1 °F 100.2 °F 75.9 °F 65% 29.98 in 10.0 mi SSE 19.6 mph 25.3 mph N/A   Scattered Clouds
10:51 AM 91.0 °F 100.4 °F 73.9 °F 57% 29.99 in 10.0 mi SSE 21.9 mph 28.8 mph N/A   Mostly Cloudy
11:51 AM 91.9 °F 101.3 °F 73.9 °F 55% 29.98 in 10.0 mi SSE 18.4 mph 27.6 mph N/A   Scattered Clouds
12:51 PM 93.0 °F 104.6 °F 75.0 °F 56% 29.98 in 10.0 mi SSE 18.4 mph 29.9 mph N/A   Mostly Cloudy
1:51 PM 93.0 °F 105.3 °F 75.9 °F 57% 29.97 in 10.0 mi SE 20.7 mph 27.6 mph N/A   Scattered Clouds
2:51 PM 93.9 °F 105.4 °F 75.0 °F 54% 29.95 in 10.0 mi SSE 19.6 mph 28.8 mph N/A   Scattered Clouds
3:51 PM 93.0 °F 104.6 °F 75.0 °F 56% 29.93 in 10.0 mi SSE 21.9 mph 32.2 mph N/A   Scattered Clouds
4:51 PM 91.9 °F 103.9 °F 75.9 °F 59% 29.91 in 10.0 mi SSE 24.2 mph 29.9 mph N/A   Scattered Clouds
5:51 PM 91.0 °F 102.9 °F 75.9 °F 61% 29.90 in 10.0 mi SSE 24.2 mph 31.1 mph N/A   Partly Cloudy
6:51 PM 89.1 °F 100.2 °F 75.9 °F 65% 29.90 in 10.0 mi SSE 19.6 mph 32.2 mph N/A   Partly Cloudy
7:51 PM 87.1 °F 97.3 °F 75.9 °F 69% 29.92 in 10.0 mi SSE 21.9 mph 27.6 mph N/A   Scattered Clouds
8:51 PM 86.0 °F 96.9 °F 77.0 °F 74% 29.94 in 10.0 mi SSE 15.0 mph - N/A   Partly Cloudy
9:51 PM 84.9 °F 95.3 °F 77.0 °F 77% 29.96 in 10.0 mi SSE 13.8 mph - N/A   Partly Cloudy
10:51 PM 84.0 °F 93.7 °F 77.0 °F 79% 29.97 in 10.0 mi SSE 15.0 mph 23.0 mph N/A   Partly Cloudy
11:51 PM 84.0 °F 93.7 °F 77.0 °F 79% 29.98 in 10.0 mi SSE 12.7 mph - N/A   Partly Cloudy